Year,Month,Day,Hour,Minute,Value (Times are PST for temperature in C)
2019,11,02,00,00,5.90
2019,11,02,00,01,5.90
2019,11,02,00,02,5.90
2019,11,02,00,03,5.90
2019,11,02,00,04,6.00
2019,11,02,00,05,6.00
2019,11,02,00,06,6.00
2019,11,02,00,07,6.00
2019,11,02,00,08,6.00
2019,11,02,00,09,6.00
2019,11,02,00,10,6.00
2019,11,02,00,11,6.00
2019,11,02,00,12,6.00
2019,11,02,00,13,6.10
2019,11,02,00,14,6.10
2019,11,02,00,15,6.10
2019,11,02,00,16,6.10
2019,11,02,00,17,6.10
2019,11,02,00,18,6.10
2019,11,02,00,19,6.10
2019,11,02,00,20,6.10
2019,11,02,00,21,6.10
2019,11,02,00,22,6.10
2019,11,02,00,23,6.10
2019,11,02,00,24,6.00
2019,11,02,00,25,6.00
2019,11,02,00,26,5.90
2019,11,02,00,27,5.90
2019,11,02,00,28,5.90
2019,11,02,00,29,5.80
2019,11,02,00,30,5.80
2019,11,02,00,31,5.80
2019,11,02,00,32,5.80
2019,11,02,00,33,5.80
2019,11,02,00,34,5.80
2019,11,02,00,35,5.70
2019,11,02,00,36,5.70
2019,11,02,00,37,5.80
2019,11,02,00,38,5.80
2019,11,02,00,39,5.80
2019,11,02,00,40,5.80
2019,11,02,00,41,5.80
2019,11,02,00,42,5.80
2019,11,02,00,43,5.80
2019,11,02,00,44,5.80
2019,11,02,00,45,5.80
2019,11,02,00,46,5.80
2019,11,02,00,47,5.80
2019,11,02,00,48,5.90
2019,11,02,00,49,5.90
2019,11,02,00,50,5.80
2019,11,02,00,51,5.80
2019,11,02,00,52,5.80
2019,11,02,00,53,5.80
2019,11,02,00,54,5.80
2019,11,02,00,55,5.80
2019,11,02,00,56,5.80
2019,11,02,00,57,5.80
2019,11,02,00,58,5.80
2019,11,02,00,59,5.80
2019,11,02,01,00,5.90
2019,11,02,01,01,5.90
2019,11,02,01,02,5.90
2019,11,02,01,03,5.90
2019,11,02,01,04,5.90
2019,11,02,01,05,5.90
2019,11,02,01,06,5.90
2019,11,02,01,07,5.90
2019,11,02,01,08,5.80
2019,11,02,01,09,5.80
2019,11,02,01,10,5.80
2019,11,02,01,11,5.80
2019,11,02,01,12,5.70
2019,11,02,01,13,5.70
2019,11,02,01,14,5.70
2019,11,02,01,15,5.70
2019,11,02,01,16,5.70
2019,11,02,01,17,5.70
2019,11,02,01,18,5.70
2019,11,02,01,19,5.70
2019,11,02,01,20,5.60
2019,11,02,01,21,5.60
2019,11,02,01,22,5.60
2019,11,02,01,23,5.70
2019,11,02,01,24,5.70
2019,11,02,01,25,5.70
2019,11,02,01,26,5.70
2019,11,02,01,27,5.70
2019,11,02,01,28,5.60
2019,11,02,01,29,5.60
2019,11,02,01,30,5.60
2019,11,02,01,31,5.60
2019,11,02,01,32,5.70
2019,11,02,01,33,5.70
2019,11,02,01,34,5.70
2019,11,02,01,35,5.70
2019,11,02,01,36,5.70
2019,11,02,01,37,5.70
2019,11,02,01,38,5.70
2019,11,02,01,39,5.70
2019,11,02,01,40,5.80
2019,11,02,01,41,5.80
2019,11,02,01,42,5.80
2019,11,02,01,43,5.80
2019,11,02,01,44,5.80
2019,11,02,01,45,5.80
2019,11,02,01,46,5.80
2019,11,02,01,47,5.70
2019,11,02,01,48,5.70
2019,11,02,01,49,5.70
2019,11,02,01,50,5.70
2019,11,02,01,51,5.70
2019,11,02,01,52,5.60
2019,11,02,01,53,5.60
2019,11,02,01,54,5.60
2019,11,02,01,55,5.60
2019,11,02,01,56,5.60
2019,11,02,01,57,5.60
2019,11,02,01,58,5.70
2019,11,02,01,59,5.70
2019,11,02,02,00,5.70
2019,11,02,02,01,5.70
2019,11,02,02,02,5.70
2019,11,02,02,03,5.80
2019,11,02,02,04,5.80
2019,11,02,02,05,5.80
2019,11,02,02,06,5.80
2019,11,02,02,07,5.70
2019,11,02,02,08,5.70
2019,11,02,02,09,5.70
2019,11,02,02,10,5.70
2019,11,02,02,11,5.70
2019,11,02,02,12,5.70
2019,11,02,02,13,5.70
2019,11,02,02,14,5.70
2019,11,02,02,15,5.70
2019,11,02,02,16,5.80
2019,11,02,02,17,5.80
2019,11,02,02,18,5.80
2019,11,02,02,19,5.90
2019,11,02,02,20,5.90
2019,11,02,02,21,6.00
2019,11,02,02,22,5.90
2019,11,02,02,23,5.90
2019,11,02,02,24,5.90
2019,11,02,02,25,5.90
2019,11,02,02,26,5.90
2019,11,02,02,27,5.80
2019,11,02,02,28,5.80
2019,11,02,02,29,5.80
2019,11,02,02,30,5.80
2019,11,02,02,31,5.90
2019,11,02,02,32,5.90
2019,11,02,02,33,5.90
2019,11,02,02,34,5.90
2019,11,02,02,35,5.90
2019,11,02,02,36,5.90
2019,11,02,02,37,5.90
2019,11,02,02,38,5.90
2019,11,02,02,39,5.90
2019,11,02,02,40,5.90
2019,11,02,02,41,5.90
2019,11,02,02,42,5.90
2019,11,02,02,43,5.90
2019,11,02,02,44,5.90
2019,11,02,02,45,5.90
2019,11,02,02,46,5.80
2019,11,02,02,47,5.80
2019,11,02,02,48,5.80
2019,11,02,02,49,5.80
2019,11,02,02,50,5.80
2019,11,02,02,51,5.80
2019,11,02,02,52,5.80
2019,11,02,02,53,5.80
2019,11,02,02,54,5.80
2019,11,02,02,55,5.80
2019,11,02,02,56,5.80
2019,11,02,02,57,5.80
2019,11,02,02,58,5.80
2019,11,02,02,59,5.70
2019,11,02,03,00,5.70
2019,11,02,03,01,5.70
2019,11,02,03,02,5.70
2019,11,02,03,03,5.70
2019,11,02,03,04,5.70
2019,11,02,03,05,5.70
2019,11,02,03,06,5.70
2019,11,02,03,07,5.70
2019,11,02,03,08,5.60
2019,11,02,03,09,5.60
2019,11,02,03,10,5.60
2019,11,02,03,11,5.50
2019,11,02,03,12,5.50
2019,11,02,03,13,5.50
2019,11,02,03,14,5.40
2019,11,02,03,15,5.40
2019,11,02,03,16,5.40
2019,11,02,03,17,5.30
2019,11,02,03,18,5.30
2019,11,02,03,19,5.30
2019,11,02,03,20,5.30
2019,11,02,03,21,5.30
2019,11,02,03,22,5.40
2019,11,02,03,23,5.40
2019,11,02,03,24,5.40
2019,11,02,03,25,5.40
2019,11,02,03,26,5.40
2019,11,02,03,27,5.40
2019,11,02,03,28,5.40
2019,11,02,03,29,5.40
2019,11,02,03,30,5.40
2019,11,02,03,31,5.40
2019,11,02,03,32,5.40
2019,11,02,03,33,5.40
2019,11,02,03,34,5.40
2019,11,02,03,35,5.40
2019,11,02,03,36,5.40
2019,11,02,03,37,5.40
2019,11,02,03,38,5.40
2019,11,02,03,39,5.40
2019,11,02,03,40,5.50
2019,11,02,03,41,5.50
2019,11,02,03,42,5.60
2019,11,02,03,43,5.60
2019,11,02,03,44,5.60
2019,11,02,03,45,5.70
2019,11,02,03,46,5.70
2019,11,02,03,47,5.60
2019,11,02,03,48,5.60
2019,11,02,03,49,5.70
2019,11,02,03,50,5.60
2019,11,02,03,51,5.60
2019,11,02,03,52,5.60
2019,11,02,03,53,5.60
2019,11,02,03,54,5.60
2019,11,02,03,55,5.60
2019,11,02,03,56,5.60
2019,11,02,03,57,5.60
2019,11,02,03,58,5.50
2019,11,02,03,59,5.50
2019,11,02,04,00,5.40
2019,11,02,04,01,5.40
2019,11,02,04,02,5.30
2019,11,02,04,03,5.30
2019,11,02,04,04,5.30
2019,11,02,04,05,5.30
2019,11,02,04,06,5.30
2019,11,02,04,07,5.30
2019,11,02,04,08,5.30
2019,11,02,04,09,5.30
2019,11,02,04,10,5.20
2019,11,02,04,11,5.20
2019,11,02,04,12,5.10
2019,11,02,04,13,5.10
2019,11,02,04,14,5.00
2019,11,02,04,15,5.00
2019,11,02,04,16,4.90
2019,11,02,04,17,4.90
2019,11,02,04,18,4.90
2019,11,02,04,19,4.80
2019,11,02,04,20,4.80
2019,11,02,04,21,4.80
2019,11,02,04,22,4.70
2019,11,02,04,23,4.70
2019,11,02,04,24,4.70
2019,11,02,04,25,4.70
2019,11,02,04,26,4.70
2019,11,02,04,27,4.70
2019,11,02,04,28,4.80
2019,11,02,04,29,4.80
2019,11,02,04,30,4.80
2019,11,02,04,31,4.90
2019,11,02,04,32,4.90
2019,11,02,04,33,5.00
2019,11,02,04,34,5.00
2019,11,02,04,35,5.00
2019,11,02,04,36,5.10
2019,11,02,04,37,5.10
2019,11,02,04,38,5.10
2019,11,02,04,39,5.20
2019,11,02,04,40,5.20
2019,11,02,04,41,5.20
2019,11,02,04,42,5.20
2019,11,02,04,43,5.20
2019,11,02,04,44,5.20
2019,11,02,04,45,5.20
2019,11,02,04,46,5.20
2019,11,02,04,47,5.20
2019,11,02,04,48,5.20
2019,11,02,04,49,5.20
2019,11,02,04,50,5.20
2019,11,02,04,51,5.20
2019,11,02,04,52,5.20
2019,11,02,04,53,5.20
2019,11,02,04,54,5.20
2019,11,02,04,55,5.10
2019,11,02,04,56,5.10
2019,11,02,04,57,5.10
2019,11,02,04,58,5.10
2019,11,02,04,59,5.10
2019,11,02,05,00,5.10
2019,11,02,05,01,5.10
2019,11,02,05,02,5.10
2019,11,02,05,03,5.00
2019,11,02,05,04,5.00
2019,11,02,05,05,5.00
2019,11,02,05,06,4.90
2019,11,02,05,07,4.90
2019,11,02,05,08,4.80
2019,11,02,05,09,4.80
2019,11,02,05,10,4.80
2019,11,02,05,11,4.80
2019,11,02,05,12,4.80
2019,11,02,05,13,4.80
2019,11,02,05,14,4.80
2019,11,02,05,15,4.90
2019,11,02,05,16,4.90
2019,11,02,05,17,5.00
2019,11,02,05,18,5.00
2019,11,02,05,19,5.10
2019,11,02,05,20,5.10
2019,11,02,05,21,5.10
2019,11,02,05,22,5.10
2019,11,02,05,23,5.10
2019,11,02,05,24,5.10
2019,11,02,05,25,5.00
2019,11,02,05,26,5.00
2019,11,02,05,27,5.00
2019,11,02,05,28,5.00
2019,11,02,05,29,5.10
2019,11,02,05,30,5.10
2019,11,02,05,31,5.00
2019,11,02,05,32,5.10
2019,11,02,05,33,5.00
2019,11,02,05,34,5.00
2019,11,02,05,35,5.00
2019,11,02,05,36,4.90
2019,11,02,05,37,4.90
2019,11,02,05,38,5.00
2019,11,02,05,39,5.00
2019,11,02,05,40,5.10
2019,11,02,05,41,5.10
2019,11,02,05,42,5.20
2019,11,02,05,43,5.30
2019,11,02,05,44,5.30
2019,11,02,05,45,5.40
2019,11,02,05,46,5.50
2019,11,02,05,47,5.50
2019,11,02,05,48,5.60
2019,11,02,05,49,5.60
2019,11,02,05,50,5.70
2019,11,02,05,51,5.70
2019,11,02,05,52,5.70
2019,11,02,05,53,5.80
2019,11,02,05,54,5.80
2019,11,02,05,55,5.80
2019,11,02,05,56,5.70
2019,11,02,05,57,5.70
2019,11,02,05,58,5.60
2019,11,02,05,59,5.50
2019,11,02,06,00,5.50
2019,11,02,06,01,5.40
2019,11,02,06,02,5.30
2019,11,02,06,03,5.30
2019,11,02,06,04,5.30
2019,11,02,06,05,5.30
2019,11,02,06,06,5.20
2019,11,02,06,07,5.20
2019,11,02,06,08,5.20
2019,11,02,06,09,5.20
2019,11,02,06,10,5.20
2019,11,02,06,11,5.20
2019,11,02,06,12,5.20
2019,11,02,06,13,5.30
2019,11,02,06,14,5.30
2019,11,02,06,15,5.30
2019,11,02,06,16,5.30
2019,11,02,06,17,5.30
2019,11,02,06,18,5.40
2019,11,02,06,19,5.40
2019,11,02,06,20,5.40
2019,11,02,06,21,5.40
2019,11,02,06,22,5.30
2019,11,02,06,23,5.30
2019,11,02,06,24,5.30
2019,11,02,06,25,5.20
2019,11,02,06,26,5.20
2019,11,02,06,27,5.10
2019,11,02,06,28,5.10
2019,11,02,06,29,5.00
2019,11,02,06,30,4.90
2019,11,02,06,31,4.90
2019,11,02,06,32,4.80
2019,11,02,06,33,4.80
2019,11,02,06,34,4.70
2019,11,02,06,35,4.70
2019,11,02,06,36,4.70
2019,11,02,06,37,4.60
2019,11,02,06,38,4.60
2019,11,02,06,39,4.50
2019,11,02,06,40,4.50
2019,11,02,06,41,4.50
2019,11,02,06,42,4.40
2019,11,02,06,43,4.40
2019,11,02,06,44,4.40
2019,11,02,06,45,4.40
2019,11,02,06,46,4.40
2019,11,02,06,47,4.40
2019,11,02,06,48,4.40
2019,11,02,06,49,4.40
2019,11,02,06,50,4.40
2019,11,02,06,51,4.40
2019,11,02,06,52,4.40
2019,11,02,06,53,4.40
2019,11,02,06,54,4.40
2019,11,02,06,55,4.30
2019,11,02,06,56,4.30
2019,11,02,06,57,4.30
2019,11,02,06,58,4.30
2019,11,02,06,59,4.30
2019,11,02,07,00,4.50
2019,11,02,07,01,4.60
2019,11,02,07,02,4.70
2019,11,02,07,03,4.80
2019,11,02,07,04,4.80
2019,11,02,07,05,4.90
2019,11,02,07,06,4.90
2019,11,02,07,07,4.90
2019,11,02,07,08,5.00
2019,11,02,07,09,4.90
2019,11,02,07,10,4.90
2019,11,02,07,11,4.90
2019,11,02,07,12,4.80
2019,11,02,07,13,4.70
2019,11,02,07,14,4.70
2019,11,02,07,15,4.60
2019,11,02,07,16,4.60
2019,11,02,07,17,4.60
2019,11,02,07,18,4.60
2019,11,02,07,19,4.50
2019,11,02,07,20,4.50
2019,11,02,07,21,4.60
2019,11,02,07,22,4.60
2019,11,02,07,23,4.70
2019,11,02,07,24,4.70
2019,11,02,07,25,4.70
2019,11,02,07,26,4.70
2019,11,02,07,27,4.70
2019,11,02,07,28,4.70
2019,11,02,07,29,4.70
2019,11,02,07,30,4.70
2019,11,02,07,31,4.70
2019,11,02,07,32,4.70
2019,11,02,07,33,4.70
2019,11,02,07,34,4.70
2019,11,02,07,35,4.70
2019,11,02,07,36,4.70
2019,11,02,07,37,4.70
2019,11,02,07,38,4.70
2019,11,02,07,39,4.70
2019,11,02,07,40,4.80
2019,11,02,07,41,4.80
2019,11,02,07,42,4.90
2019,11,02,07,43,4.90
2019,11,02,07,44,5.00
2019,11,02,07,45,5.00
2019,11,02,07,46,5.10
2019,11,02,07,47,5.10
2019,11,02,07,48,5.20
2019,11,02,07,49,5.20
2019,11,02,07,50,5.20
2019,11,02,07,51,5.20
2019,11,02,07,52,5.20
2019,11,02,07,53,5.20
2019,11,02,07,54,5.20
2019,11,02,07,55,5.30
2019,11,02,07,56,5.30
2019,11,02,07,57,5.30
2019,11,02,07,58,5.30
2019,11,02,07,59,5.30
2019,11,02,08,00,5.30
2019,11,02,08,01,5.30
2019,11,02,08,02,5.30
2019,11,02,08,03,5.30
2019,11,02,08,04,5.20
2019,11,02,08,05,5.20
2019,11,02,08,06,5.10
2019,11,02,08,07,5.10
2019,11,02,08,08,5.00
2019,11,02,08,09,5.00
2019,11,02,08,10,4.90
2019,11,02,08,11,4.90
2019,11,02,08,12,4.80
2019,11,02,08,13,4.80
2019,11,02,08,14,4.80
2019,11,02,08,15,4.70
2019,11,02,08,16,4.70
2019,11,02,08,17,4.70
2019,11,02,08,18,4.60
2019,11,02,08,19,4.60
2019,11,02,08,20,4.70
2019,11,02,08,21,4.60
2019,11,02,08,22,4.70
2019,11,02,08,23,4.70
2019,11,02,08,24,4.70
2019,11,02,08,25,4.70
2019,11,02,08,26,4.80
2019,11,02,08,27,4.80
2019,11,02,08,28,4.80
2019,11,02,08,29,4.80
2019,11,02,08,30,4.90
2019,11,02,08,31,4.90
2019,11,02,08,32,4.90
2019,11,02,08,33,5.00
2019,11,02,08,34,5.00
2019,11,02,08,35,5.10
2019,11,02,08,36,5.10
2019,11,02,08,37,5.10
2019,11,02,08,38,5.10
2019,11,02,08,39,5.10
2019,11,02,08,40,5.10
2019,11,02,08,41,5.10
2019,11,02,08,42,5.10
2019,11,02,08,43,5.10
2019,11,02,08,44,5.00
2019,11,02,08,45,5.00
2019,11,02,08,46,5.00
2019,11,02,08,47,5.00
2019,11,02,08,48,5.00
2019,11,02,08,49,5.00
2019,11,02,08,50,4.90
2019,11,02,08,51,4.90
2019,11,02,08,52,4.90
2019,11,02,08,53,4.90
2019,11,02,08,54,4.90
2019,11,02,08,55,5.00
2019,11,02,08,56,5.00
2019,11,02,08,57,5.10
2019,11,02,08,58,5.10
2019,11,02,08,59,5.20
2019,11,02,09,00,5.20
2019,11,02,09,01,5.30
2019,11,02,09,02,5.40
2019,11,02,09,03,5.50
2019,11,02,09,04,5.60
2019,11,02,09,05,5.60
2019,11,02,09,06,5.70
2019,11,02,09,07,5.80
2019,11,02,09,08,5.90
2019,11,02,09,09,6.00
2019,11,02,09,10,6.10
2019,11,02,09,11,6.20
2019,11,02,09,12,6.30
2019,11,02,09,13,6.40
2019,11,02,09,14,6.50
2019,11,02,09,15,6.60
2019,11,02,09,16,6.70
2019,11,02,09,17,6.80
2019,11,02,09,18,6.90
2019,11,02,09,19,6.90
2019,11,02,09,20,7.00
2019,11,02,09,21,7.30
2019,11,02,09,22,7.50
2019,11,02,09,23,7.60
2019,11,02,09,24,7.70
2019,11,02,09,25,7.80
2019,11,02,09,26,7.90
2019,11,02,09,27,7.90
2019,11,02,09,28,8.00
2019,11,02,09,29,8.00
2019,11,02,09,30,8.10
2019,11,02,09,31,8.20
2019,11,02,09,32,8.20
2019,11,02,09,33,8.30
2019,11,02,09,34,8.40
2019,11,02,09,35,8.40
2019,11,02,09,36,8.40
2019,11,02,09,37,8.50
2019,11,02,09,38,8.50
2019,11,02,09,39,8.50
2019,11,02,09,40,8.50
2019,11,02,09,41,8.50
2019,11,02,09,42,8.60
2019,11,02,09,43,8.60
2019,11,02,09,44,8.60
2019,11,02,09,45,8.70
2019,11,02,09,46,8.70
2019,11,02,09,47,8.80
2019,11,02,09,48,8.80
2019,11,02,09,49,8.80
2019,11,02,09,50,8.90
2019,11,02,09,51,8.90
2019,11,02,09,52,9.00
2019,11,02,09,53,9.10
2019,11,02,09,54,9.10
2019,11,02,09,55,9.20
2019,11,02,09,56,9.20
2019,11,02,09,57,9.30
2019,11,02,09,58,9.30
2019,11,02,09,59,9.30
2019,11,02,10,00,9.30
2019,11,02,10,01,9.20
2019,11,02,10,02,9.20
2019,11,02,10,03,9.20
2019,11,02,10,04,9.20
2019,11,02,10,05,9.20
2019,11,02,10,06,9.10
2019,11,02,10,07,9.10
2019,11,02,10,08,9.20
2019,11,02,10,09,9.20
2019,11,02,10,10,9.20
2019,11,02,10,11,9.20
2019,11,02,10,12,9.20
2019,11,02,10,13,9.20
2019,11,02,10,14,9.20
2019,11,02,10,15,9.20
2019,11,02,10,16,9.20
2019,11,02,10,17,9.30
2019,11,02,10,18,9.40
2019,11,02,10,19,9.40
2019,11,02,10,20,9.50
2019,11,02,10,21,9.60
2019,11,02,10,22,9.60
2019,11,02,10,23,9.70
2019,11,02,10,24,9.80
2019,11,02,10,25,9.80
2019,11,02,10,26,9.90
2019,11,02,10,27,9.90
2019,11,02,10,28,9.90
2019,11,02,10,29,9.90
2019,11,02,10,30,9.90
2019,11,02,10,31,9.90
2019,11,02,10,32,9.90
2019,11,02,10,33,10.00
2019,11,02,10,34,10.10
2019,11,02,10,35,10.10
2019,11,02,10,36,10.20
2019,11,02,10,37,10.20
2019,11,02,10,38,10.30
2019,11,02,10,39,10.30
2019,11,02,10,40,10.40
2019,11,02,10,41,10.50
2019,11,02,10,42,10.60
2019,11,02,10,43,10.60
2019,11,02,10,44,10.50
2019,11,02,10,45,10.40
2019,11,02,10,46,10.30
2019,11,02,10,47,10.20
2019,11,02,10,48,10.10
2019,11,02,10,49,9.90
2019,11,02,10,50,9.80
2019,11,02,10,51,9.70
2019,11,02,10,52,9.70
2019,11,02,10,53,9.60
2019,11,02,10,54,9.60
2019,11,02,10,55,9.50
2019,11,02,10,56,9.40
2019,11,02,10,57,9.40
2019,11,02,10,58,9.40
2019,11,02,10,59,9.50
2019,11,02,11,00,9.50
2019,11,02,11,01,9.40
2019,11,02,11,02,9.40
2019,11,02,11,03,9.40
2019,11,02,11,04,9.40
2019,11,02,11,05,9.50
2019,11,02,11,06,9.50
2019,11,02,11,07,9.60
2019,11,02,11,08,9.70
2019,11,02,11,09,9.70
2019,11,02,11,10,9.80
2019,11,02,11,11,9.90
2019,11,02,11,12,10.10
2019,11,02,11,13,10.20
2019,11,02,11,14,10.30
2019,11,02,11,15,10.40
2019,11,02,11,16,10.50
2019,11,02,11,17,10.60
2019,11,02,11,18,10.60
2019,11,02,11,19,10.70
2019,11,02,11,20,10.80
2019,11,02,11,21,10.80
2019,11,02,11,22,10.90
2019,11,02,11,23,10.90
2019,11,02,11,24,10.90
2019,11,02,11,25,10.90
2019,11,02,11,26,11.00
2019,11,02,11,27,11.00
2019,11,02,11,28,11.00
2019,11,02,11,29,11.10
2019,11,02,11,30,11.10
2019,11,02,11,31,11.00
2019,11,02,11,32,10.80
2019,11,02,11,33,10.70
2019,11,02,11,34,10.50
2019,11,02,11,35,10.30
2019,11,02,11,36,10.20
2019,11,02,11,37,10.10
2019,11,02,11,38,10.00
2019,11,02,11,39,9.90
2019,11,02,11,40,9.90
2019,11,02,11,41,9.90
2019,11,02,11,42,9.90
2019,11,02,11,43,9.90
2019,11,02,11,44,9.90
2019,11,02,11,45,9.90
2019,11,02,11,46,9.90
2019,11,02,11,47,9.90
2019,11,02,11,48,9.90
2019,11,02,11,49,9.90
2019,11,02,11,50,9.90
2019,11,02,11,51,9.90
2019,11,02,11,52,9.80
2019,11,02,11,53,9.80
2019,11,02,11,54,9.80
2019,11,02,11,55,9.80
2019,11,02,11,56,9.80
2019,11,02,11,57,9.80
2019,11,02,11,58,9.80
2019,11,02,11,59,9.80
2019,11,02,12,00,9.90
2019,11,02,12,01,9.90
2019,11,02,12,02,9.90
2019,11,02,12,03,10.00
2019,11,02,12,04,10.10
2019,11,02,12,05,10.10
2019,11,02,12,06,10.10
2019,11,02,12,07,10.10
2019,11,02,12,08,10.20
2019,11,02,12,09,10.20
2019,11,02,12,10,10.30
2019,11,02,12,11,10.30
2019,11,02,12,12,10.40
2019,11,02,12,13,10.40
2019,11,02,12,14,10.40
2019,11,02,12,15,10.40
2019,11,02,12,16,10.50
2019,11,02,12,17,10.50
2019,11,02,12,18,10.50
2019,11,02,12,19,10.50
2019,11,02,12,20,10.50
2019,11,02,12,21,10.50
2019,11,02,12,22,10.40
2019,11,02,12,23,10.40
2019,11,02,12,24,10.40
2019,11,02,12,25,10.50
2019,11,02,12,26,10.60
2019,11,02,12,27,10.60
2019,11,02,12,28,10.70
2019,11,02,12,29,10.80
2019,11,02,12,30,10.80
2019,11,02,12,31,10.90
2019,11,02,12,32,10.90
2019,11,02,12,33,10.90
2019,11,02,12,34,10.80
2019,11,02,12,35,10.80
2019,11,02,12,36,10.80
2019,11,02,12,37,10.80
2019,11,02,12,38,10.90
2019,11,02,12,39,10.90
2019,11,02,12,40,11.00
2019,11,02,12,41,11.00
2019,11,02,12,42,11.10
2019,11,02,12,43,11.10
2019,11,02,12,44,11.10
2019,11,02,12,45,11.10
2019,11,02,12,46,11.20
2019,11,02,12,47,11.20
2019,11,02,12,48,11.20
2019,11,02,12,49,11.20
2019,11,02,12,50,11.20
2019,11,02,12,51,11.20
2019,11,02,12,52,11.10
2019,11,02,12,53,11.10
2019,11,02,12,54,11.10
2019,11,02,12,55,11.10
2019,11,02,12,56,11.10
2019,11,02,12,57,11.10
2019,11,02,12,58,11.10
2019,11,02,12,59,11.10
2019,11,02,13,00,11.10
2019,11,02,13,01,11.10
2019,11,02,13,02,11.10
2019,11,02,13,03,11.00
2019,11,02,13,04,11.00
2019,11,02,13,05,11.10
2019,11,02,13,06,11.00
2019,11,02,13,07,11.00
2019,11,02,13,08,10.90
2019,11,02,13,09,10.80
2019,11,02,13,10,10.80
2019,11,02,13,11,10.80
2019,11,02,13,12,10.80
2019,11,02,13,13,10.70
2019,11,02,13,14,10.70
2019,11,02,13,15,10.70
2019,11,02,13,16,10.70
2019,11,02,13,17,10.70
2019,11,02,13,18,10.70
2019,11,02,13,19,10.80
2019,11,02,13,20,10.80
2019,11,02,13,21,10.80
2019,11,02,13,22,10.80
2019,11,02,13,23,10.80
2019,11,02,13,24,10.80
2019,11,02,13,25,10.80
2019,11,02,13,26,10.80
2019,11,02,13,27,10.80
2019,11,02,13,28,10.90
2019,11,02,13,29,10.90
2019,11,02,13,30,10.90
2019,11,02,13,31,10.90
2019,11,02,13,32,10.90
2019,11,02,13,33,10.90
2019,11,02,13,34,10.90
2019,11,02,13,35,10.90
2019,11,02,13,36,10.90
2019,11,02,13,37,11.00
2019,11,02,13,38,10.90
2019,11,02,13,39,10.90
2019,11,02,13,40,10.80
2019,11,02,13,41,10.80
2019,11,02,13,42,10.70
2019,11,02,13,43,10.70
2019,11,02,13,44,10.70
2019,11,02,13,45,10.70
2019,11,02,13,46,10.70
2019,11,02,13,47,10.80
2019,11,02,13,48,10.80
2019,11,02,13,49,10.80
2019,11,02,13,50,10.80
2019,11,02,13,51,10.80
2019,11,02,13,52,10.80
2019,11,02,13,53,10.90
2019,11,02,13,54,10.90
2019,11,02,13,55,10.90
2019,11,02,13,56,11.00
2019,11,02,13,57,11.00
2019,11,02,13,58,11.10
2019,11,02,13,59,11.20
2019,11,02,14,00,11.30
2019,11,02,14,01,11.30
2019,11,02,14,02,11.40
2019,11,02,14,03,11.50
2019,11,02,14,04,11.50
2019,11,02,14,05,11.60
2019,11,02,14,06,11.60
2019,11,02,14,07,11.60
2019,11,02,14,08,11.60
2019,11,02,14,09,11.60
2019,11,02,14,10,11.60
2019,11,02,14,11,11.60
2019,11,02,14,12,11.70
2019,11,02,14,13,11.70
2019,11,02,14,14,11.70
2019,11,02,14,15,11.70
2019,11,02,14,16,11.80
2019,11,02,14,17,11.80
2019,11,02,14,18,11.80
2019,11,02,14,19,11.80
2019,11,02,14,20,11.80
2019,11,02,14,21,11.90
2019,11,02,14,22,11.90
2019,11,02,14,23,11.90
2019,11,02,14,24,11.90
2019,11,02,14,25,12.00
2019,11,02,14,26,12.10
2019,11,02,14,27,12.00
2019,11,02,14,28,12.00
2019,11,02,14,29,11.90
2019,11,02,14,30,11.90
2019,11,02,14,31,11.80
2019,11,02,14,32,11.80
2019,11,02,14,33,11.70
2019,11,02,14,34,11.80
2019,11,02,14,35,11.80
2019,11,02,14,36,11.80
2019,11,02,14,37,11.80
2019,11,02,14,38,11.80
2019,11,02,14,39,11.80
2019,11,02,14,40,11.90
2019,11,02,14,41,12.00
2019,11,02,14,42,12.00
2019,11,02,14,43,12.10
2019,11,02,14,44,12.20
2019,11,02,14,45,12.20
2019,11,02,14,46,12.20
2019,11,02,14,47,12.20
2019,11,02,14,48,12.20
2019,11,02,14,49,12.20
2019,11,02,14,50,12.20
2019,11,02,14,51,12.20
2019,11,02,14,52,12.20
2019,11,02,14,53,12.20
2019,11,02,14,54,12.20
2019,11,02,14,55,12.20
2019,11,02,14,56,12.20
2019,11,02,14,57,12.10
2019,11,02,14,58,12.00
2019,11,02,14,59,12.00
2019,11,02,15,00,11.90
2019,11,02,15,01,11.80
2019,11,02,15,02,11.80
2019,11,02,15,03,11.70
2019,11,02,15,04,11.70
2019,11,02,15,05,11.70
2019,11,02,15,06,11.70
2019,11,02,15,07,11.70
2019,11,02,15,08,11.70
2019,11,02,15,09,11.70
2019,11,02,15,10,11.70
2019,11,02,15,11,11.70
2019,11,02,15,12,11.70
2019,11,02,15,13,11.70
2019,11,02,15,14,11.70
2019,11,02,15,15,11.70
2019,11,02,15,16,11.80
2019,11,02,15,17,11.80
2019,11,02,15,18,11.80
2019,11,02,15,19,11.80
2019,11,02,15,20,11.70
2019,11,02,15,21,11.80
2019,11,02,15,22,11.80
2019,11,02,15,23,11.70
2019,11,02,15,24,11.80
2019,11,02,15,25,11.70
2019,11,02,15,26,11.80
2019,11,02,15,27,11.80
2019,11,02,15,28,11.80
2019,11,02,15,29,11.90
2019,11,02,15,30,12.00
2019,11,02,15,31,12.10
2019,11,02,15,32,12.10
2019,11,02,15,33,12.20
2019,11,02,15,34,12.20
2019,11,02,15,35,12.20
2019,11,02,15,36,12.20
2019,11,02,15,37,12.10
2019,11,02,15,38,12.00
2019,11,02,15,39,11.90
2019,11,02,15,40,11.80
2019,11,02,15,41,11.70
2019,11,02,15,42,11.70
2019,11,02,15,43,11.60
2019,11,02,15,44,11.60
2019,11,02,15,45,11.60
2019,11,02,15,46,11.60
2019,11,02,15,47,11.60
2019,11,02,15,48,11.60
2019,11,02,15,49,11.50
2019,11,02,15,50,11.50
2019,11,02,15,51,11.40
2019,11,02,15,52,11.40
2019,11,02,15,53,11.40
2019,11,02,15,54,11.50
2019,11,02,15,55,11.50
2019,11,02,15,56,11.60
2019,11,02,15,57,11.60
2019,11,02,15,58,11.60
2019,11,02,15,59,11.60
2019,11,02,16,00,11.60
2019,11,02,16,01,11.60
2019,11,02,16,02,11.60
2019,11,02,16,03,11.60
2019,11,02,16,04,11.60
2019,11,02,16,05,11.70
2019,11,02,16,06,11.70
2019,11,02,16,07,11.70
2019,11,02,16,08,11.70
2019,11,02,16,09,11.80
2019,11,02,16,10,11.80
2019,11,02,16,11,11.80
2019,11,02,16,12,11.80
2019,11,02,16,13,11.80
2019,11,02,16,14,11.70
2019,11,02,16,15,11.70
2019,11,02,16,16,11.70
2019,11,02,16,17,11.70
2019,11,02,16,18,11.70
2019,11,02,16,19,11.60
2019,11,02,16,20,11.60
2019,11,02,16,21,11.50
2019,11,02,16,22,11.40
2019,11,02,16,23,11.40
2019,11,02,16,24,11.40
2019,11,02,16,25,11.40
2019,11,02,16,26,11.30
2019,11,02,16,27,11.30
2019,11,02,16,28,11.30
2019,11,02,16,29,11.20
2019,11,02,16,30,11.20
2019,11,02,16,31,11.10
2019,11,02,16,32,11.10
2019,11,02,16,33,11.10
2019,11,02,16,34,11.00
2019,11,02,16,35,11.00
2019,11,02,16,36,11.00
2019,11,02,16,37,11.00
2019,11,02,16,38,11.00
2019,11,02,16,39,11.00
2019,11,02,16,40,10.90
2019,11,02,16,41,10.90
2019,11,02,16,42,10.90
2019,11,02,16,43,10.90
2019,11,02,16,44,10.90
2019,11,02,16,45,10.90
2019,11,02,16,46,10.90
2019,11,02,16,47,10.90
2019,11,02,16,48,10.80
2019,11,02,16,49,10.80
2019,11,02,16,50,10.80
2019,11,02,16,51,10.80
2019,11,02,16,52,10.80
2019,11,02,16,53,10.80
2019,11,02,16,54,10.80
2019,11,02,16,55,10.80
2019,11,02,16,56,10.80
2019,11,02,16,57,10.70
2019,11,02,16,58,10.70
2019,11,02,16,59,10.70
2019,11,02,17,00,10.70
2019,11,02,17,01,10.70
2019,11,02,17,02,10.60
2019,11,02,17,03,10.60
2019,11,02,17,04,10.60
2019,11,02,17,05,10.60
2019,11,02,17,06,10.50
2019,11,02,17,07,10.50
2019,11,02,17,08,10.50
2019,11,02,17,09,10.40
2019,11,02,17,10,10.40
2019,11,02,17,11,10.40
2019,11,02,17,12,10.40
2019,11,02,17,13,10.30
2019,11,02,17,14,10.30
2019,11,02,17,15,10.30
2019,11,02,17,16,10.30
2019,11,02,17,17,10.30
2019,11,02,17,18,10.20
2019,11,02,17,19,10.20
2019,11,02,17,20,10.10
2019,11,02,17,21,10.10
2019,11,02,17,22,10.10
2019,11,02,17,23,10.00
2019,11,02,17,24,10.00
2019,11,02,17,25,9.90
2019,11,02,17,26,9.90
2019,11,02,17,27,9.90
2019,11,02,17,28,9.80
2019,11,02,17,29,9.80
2019,11,02,17,30,9.80
2019,11,02,17,31,9.80
2019,11,02,17,32,9.70
2019,11,02,17,33,9.70
2019,11,02,17,34,9.70
2019,11,02,17,35,9.70
2019,11,02,17,36,9.60
2019,11,02,17,37,9.60
2019,11,02,17,38,9.60
2019,11,02,17,39,9.50
2019,11,02,17,40,9.50
2019,11,02,17,41,9.40
2019,11,02,17,42,9.40
2019,11,02,17,43,9.40
2019,11,02,17,44,9.30
2019,11,02,17,45,9.30
2019,11,02,17,46,9.30
2019,11,02,17,47,9.30
2019,11,02,17,48,9.20
2019,11,02,17,49,9.20
2019,11,02,17,50,9.20